Location: Bacea
(45.9500°N, 22.6667°E)
Time: 07:03:01
(UTC+00:00)

Envisat - Visible Passes

Search period start: 28 January 2022 00:00
Search period end: 07 February 2022 00:00
Orbit: 764 x 766 km, 98.2° (Epoch: 27 January)

Date Brightness Start Highest point End Pass type
(mag) Time Alt. Az. Time Alt. Az. Time Alt. Az.
28 Jan 3.7 03:06:10 10° NNE 03:11:09 53° E 03:16:06 10° S visible
28 Jan 4.1 04:45:54 10° NNW 04:49:48 23° WNW 04:53:42 10° WSW visible
28 Jan 6.2 16:05:39 10° WSW 16:07:43 12° W 16:09:48 10° WNW visible
29 Jan 5.0 02:29:51 10° NE 02:34:02 25° E 02:38:12 10° SSE visible
29 Jan 3.2 04:08:25 10° N 04:13:13 44° WNW 04:18:02 10° SW visible
30 Jan 5.9 01:54:56 10° ENE 01:56:43 12° E 01:58:30 10° ESE visible
30 Jan 2.9 03:31:20 10° NNE 03:36:27 89° E 03:41:32 10° SSW visible
30 Jan 4.6 05:12:05 10° NNW 05:14:45 14° WNW 05:17:25 10° W visible
31 Jan 4.1 02:54:40 10° NNE 02:59:30 42° E 03:04:18 10° SSE visible
31 Jan 3.8 04:34:03 10° N 04:38:19 28° WNW 04:42:34 10° WSW visible
01 Feb 5.3 02:18:35 10° NE 02:22:20 20° E 02:26:03 10° SE visible
01 Feb 3.0 03:56:43 10° N 04:01:41 55° WNW 04:06:38 10° SSW visible
02 Feb 3.2 03:19:46 10° NNE 03:24:52 72° ESE 03:29:55 10° S visible
02 Feb 4.4 05:00:01 10° NNW 05:03:19 18° WNW 05:06:37 10° W visible
03 Feb 4.5 02:43:13 10° NNE 02:47:50 33° E 02:52:24 10° SSE visible
03 Feb 3.6 04:22:16 10° N 04:26:49 34° WNW 04:31:20 10° SW visible
04 Feb 5.6 02:07:29 10° NE 02:10:35 16° E 02:13:42 10° SE visible
04 Feb 2.9 03:45:03 10° N 03:50:07 69° WNW 03:55:10 10° SSW visible
05 Feb 3.5 03:08:12 10° NNE 03:13:14 57° E 03:18:13 10° S visible
05 Feb 4.2 04:48:04 10° NNW 04:51:51 21° WNW 04:55:37 10° WSW visible
05 Feb 6.3 16:08:11 10° WSW 16:09:51 11° W 16:11:30 10° WNW visible
06 Feb 4.9 02:31:50 10° NE 02:36:09 27° E 02:40:25 10° SSE visible
06 Feb 3.3 04:10:31 10° N 04:15:18 42° WNW 04:20:02 10° SW visible
